KB7BSA Weather Reports


time (UTC)temp
C
wind
direction
speed
KPH
gust
KPH
rain 1hr
cm
rain 24hr
cm
rain mn
cm
humidity
%
barometer
mb
20211017161642 13 208 0.0 4.8 0.00 0.00 0.00 57
20211017160110 12 208 0.0 6.4 0.00 0.00 0.00 60
20211017154619 11 208 0.0 6.4 0.00 0.00 0.00 62
20211017153044 11 208 1.6 8.0 0.00 0.00 0.00 66
20211017151543 10 208 0.0 4.8 0.00 0.00 0.00 69
20211017150028 9 208 0.0 6.4 0.00 0.00 0.00 69
20211017144538 8 208 0.0 3.2 0.00 0.00 0.00 69
20211017143036 8 208 0.0 6.4 0.00 0.00 0.00 71
20211017141518 7 208 0.0 4.8 0.00 0.00 0.00 71
20211017140004 7 208 0.0 3.2 0.00 0.00 0.00 69
20211017134629 7 208 0.0 4.8 0.00 0.00 0.00 67
20211017133129 7 208 0.0 4.8 0.00 0.00 0.00 64
20211017131628 -17 0.0 0.0 0.00 0.00 0.00
20211017130049 -17 0.0 0.0 0.00 0.00 0.00
20211017124624 -17 0.0 0.0 0.00 0.00 0.00
20211017123041 -17 0.0 0.0 0.00 0.00 0.00
20211017121549 6 208 0.0 0.0 0.00 0.00 0.00 26
20211017120029 6 208 0.0 0.0 0.00 0.00 0.00 30
20211017114556 6 208 0.0 0.0 0.00 0.00 0.00 33
20211017113041 6 208 0.0 0.0 0.00 0.00 0.00 33
20211017111527 6 208 0.0 0.0 0.00 0.00 0.00 38
20211017110026 6 208 0.0 0.0 0.00 0.00 0.00 46
20211017104516 6 208 0.0 0.0 0.00 0.00 0.00 43
20211017103001 6 208 0.0 0.0 0.00 0.00 0.00 43
20211017101623 6 208 0.0 0.0 0.00 0.00 0.00 46
20211017100122 7 208 0.0 0.0 0.00 0.00 0.00 51
20211017094628 7 208 0.0 0.0 0.00 0.00 0.00 50
20211017093056 6 208 0.0 0.0 0.00 0.00 0.00 48
20211017091647 7 208 0.0 0.0 0.00 0.00 0.00 45
20211017090057 7 208 0.0 0.0 0.00 0.00 0.00 40
20211017084549 6 208 0.0 0.0 0.00 0.00 0.00 39
20211017083104 7 208 0.0 0.0 0.00 0.00 0.00 42
20211017081558 7 208 0.0 0.0 0.00 0.00 0.00 48
20211017080028 7 208 0.0 0.0 0.00 0.10 0.00 45
20211017074518 7 208 0.0 0.0 0.00 0.10 0.00 43
20211017073017 7 208 0.0 0.0 0.00 0.10 0.00 43
20211017071513 7 208 0.0 0.0 0.00 0.10 0.00 44
20211017064720 7 208 0.0 0.0 0.00 0.10 0.00 52
20211017063108 7 208 0.0 0.0 0.00 0.10 0.00 59
20211017061613 7 208 0.0 0.0 0.00 0.10 0.00 62
20211017060118 7 208 0.0 0.0 0.00 0.10 0.00 64
20211017054556 8 208 0.0 0.0 0.00 0.10 0.00 67
20211017053049 8 208 0.0 0.0 0.00 0.10 0.00 68
20211017051610 8 208 0.0 0.0 0.00 0.10 0.00 69
20211017050054 8 208 0.0 0.0 0.00 0.10 0.10 71
20211017044551 8 208 0.0 0.0 0.00 0.10 0.10 73
20211017043105 8 208 0.0 0.0 0.00 0.10 0.10 74
20211017041513 8 208 0.0 0.0 0.00 0.10 0.10 74
20211017040015 8 208 0.0 0.0 0.00 0.10 0.10 75
20211017034504 8 208 0.0 0.0 0.00 0.10 0.10 75
20211017033129 9 208 0.0 0.0 0.00 0.10 0.10 75
20211017031641 9 208 0.0 0.0 0.00 0.10 0.10 75
20211017030144 9 208 0.0 0.0 0.00 0.10 0.10 75
20211017024603 9 208 0.0 0.0 0.00 0.10 0.10 75
20211017023108 10 208 0.0 0.0 0.00 0.10 0.10 74
20211017021604 10 208 0.0 3.2 0.00 0.10 0.10 74
20211017020105 10 208 0.0 0.0 0.00 0.10 0.10 75
20211017014546 10 208 0.0 1.6 0.00 0.10 0.10 75
20211017013150 10 208 0.0 0.0 0.00 0.10 0.10 75
20211017011622 10 208 0.0 0.0 0.00 0.10 0.10 75
20211017010200 10 208 0.0 0.0 0.00 0.10 0.10 74
20211017004548 10 208 0.0 4.8 0.00 0.10 0.10 75
20211017003026 10 208 1.6 6.4 0.00 0.10 0.10 75
20211017001557 10 208 1.6 6.4 0.00 0.10 0.10 74
20211017000031 11 208 1.6 6.4 0.00 0.10 0.10 74
20211016234517 11 208 3.2 8.0 0.00 0.10 0.10 72
20211016233014 11 208 3.2 9.7 0.00 0.10 0.10 71
20211016231506 11 208 1.6 6.4 0.00 0.10 0.10 71
20211016230130 12 208 3.2 6.4 0.00 0.10 0.10 68
20211016224630 12 208 3.2 9.7 0.00 0.10 0.10 67
20211016223139 12 208 3.2 8.0 0.00 0.10 0.10 66
20211016221633 13 208 0.0 8.0 0.00 0.10 0.10 70
20211016220100 13 208 0.0 6.4 0.00 0.10 0.10 68
20211016214642 13 208 0.0 4.8 0.00 0.10 0.10 67
20211016213110 14 208 0.0 8.0 0.00 0.10 0.10 65
20211016211534 14 208 1.6 11.3 0.00 0.10 0.10 62
20211016210109 15 207 1.6 11.3 0.00 0.10 0.10 65
20211016204534 15 207 4.8 11.3 0.00 0.10 0.10 65
20211016203023 15 207 3.2 9.7 0.00 0.10 0.10 62
20211016201516 15 207 6.4 11.3 0.00 0.10 0.10 57
20211016200009 15 208 3.2 11.3 0.00 0.10 0.10 63
20211016194501 15 208 3.2 9.7 0.00 0.10 0.10 65
20211016193255 15 208 3.2 11.3 0.00 0.10 0.10 64
20211016191654 15 209 3.2 8.0 0.00 0.10 0.10 67
20211016190151 15 209 3.2 11.3 0.00 0.10 0.10 65
20211016184616 15 209 3.2 9.7 0.00 0.10 0.10 67
20211016183048 15 209 4.8 11.3 0.00 0.10 0.10 63
20211016181610 15 214 3.2 9.7 0.00 0.10 0.10 66
20211016180206 15 215 1.6 8.0 0.00 0.10 0.10 69
20211016174606 15 215 4.8 12.9 0.00 0.10 0.10 67
20211016173033 15 212 3.2 9.7 0.00 0.10 0.10 70
20211016171517 14 212 1.6 11.3 0.00 0.10 0.10 71
20211016170032 14 212 4.8 9.7 0.00 0.10 0.10 71
20211016164512 14 212 1.6 9.7 0.00 0.10 0.10 70
20211016163004 13 212 4.8 12.9 0.00 0.10 0.10 70